Cloud_Cover
0 0 0 0 0 0 0 0 3 0 3 0 0 0 0 5 5 2 5 5 0 0 0 0 0 0 0 0 0 0 0 0 0 0 0 0 0 0 0 0 0 0 0 0
0 0 0 0 0 0 0 0 0 0 3 0 0 0 0 4 12 31 90 64 26 0 0 0 0 0 0 0 0 0 0 0 0 0 0 0 0 0 0 0 0 0 0 0
0 0 0 0 0 0 0 0 0 0 0 0 0 0 0 9 4 14 30 67 82 2 0 0 0 0 0 0 0 0 0 0 0 0 0 0 0 0 0 0 0 0 0 4
0 0 0 0 0 0 0 0 0 0 0 0 0 0 0 5 4 0 3 5 4 0 0 0 0 0 0 0 0 0 0 0 0 0 0 0 0 0 0 0 0 0 0 0
0 0 0 0 0 0 0 0 0 0 0 0 0 0 0 0 0 4 5 0 0 0 0 0 0 0 0 0 0 0 0 0 0 0 0 0 0 0 0 0 0 0 0 0
0 0 0 0 0 0 0 0 0 0 0 6 0 0 0 0 4 5 5 0 0 0 0 0 0 0 0 0 0 0 0 0 0 0 0 0 0 0 0 0 0 0 0 0
0 0 0 0 0 0 0 0 0 0 0 35 0 0 0 0 3 5 3 0 0 2 0 0 0 0 0 0 0 0 0 0 0 0 0 0 0 0 0 0 0 0 0 0
0 0 0 0 0 0 0 0 0 0 0 0 0 0 0 0 4 0 3 0 0 3 0 0 0 0 0 0 0 0 0 0 0 0 0 0 0 0 0 0 0 0 0 0
0 0 0 0 0 0 0 0 0 0 0 0 0 0 0 0 0 0 0 0 0 5 4 0 0 0 0 0 0 0 0 0 0 0 0 0 0 0 0 0 0 0 0 0
0 0 0 0 0 0 0 0 0 0 0 0 0 0 0 0 0 0 2 5 5 0 0 0 0 0 0 0 0 0 0 0 0 0 0 0 0 0 0 0 0 0 0 0
0 0 0 0 0 0 0 0 0 0 0 0 0 0 0 0 0 0 2 2 6 0 0 0 5 5 1 5 5 5 0 0 0 0 0 0 0 0 0 0 0 0 0 0
0 0 0 0 0 0 0 0 0 0 0 0 0 0 0 0 0 0 2 66 95 70 8 81 38 6 5 5 5 5 5 0 0 0 0 0 0 0 0 0 0 0 0 0
0 0 0 0 0 0 0 0 0 0 0 0 0 0 0 0 0 0 0 0 1 78 49 5 5 5 5 4 1 4 5 80 1 0 0 0 0 0 0 0 0 0 0 0
0 0 0 0 0 0 0 0 0 0 0 0 0 0 0 0 0 0 4 0 0 0 4 4 3 5 5 5 5 5 3 5 84 5 52 1 1 0 0 0 0 0 0 0
0 0 0 0 0 0 0 0 0 0 5 0 94 1 0 0 0 0 0 0 0 0 3 5 0 0 4 4 0 2 0 5 2 89 83 98 7 100 92 1 1 26 5 4
0 0 0 0 0 0 0 0 0 0 5 44 98 1 0 0 0 0 0 0 0 1 0 0 0 0 0 4 4 0 2 0 0 0 0 2 1 9 5 70 50 0 0 0
0 0 0 0 0 0 0 0 0 2 5 22 100 100 0 0 0 0 0 0 0 0 0 0 0 0 1 5 1 0 0 0 5 0 6 13 3 0 0 2 1 0 0 0
4 2 0 0 0 0 0 0 0 0 5 39 100 97 0 0 0 0 0 0 0 0 0 0 0 0 0 0 0 0 4 3 2 2 6 7 4 20 4 4 2 2 0 0
89 6 4 0 0 0 0 0 0 0 6 96 100 100 50 0 0 0 0 0 0 0 0 0 0 0 0 0 0 0 0 0 0 7 88 5 5 4 3 4 5 3 0 5
92 90 5 0 0 0 0 0 0 0 5 96 99 100 100 13 2 0 0 0 0 0 0 0 0 0 0 0 0 0 0 0 0 0 4 5 92 98 30 5 10 100 83 100
41 28 4 5 1 0 0 0 0 0 11 5 79 22 53 7 5 2 0 0 0 0 0 0 0 0 0 0 0 0 0 0 0 0 0 0 0 3 31 92 99 100 91 88
0 6 15 3 1 0 0 0 0 0 4 0 4 9 5 5 5 4 0 0 0 0 0 0 0 0 0 0 0 0 0 0 0 0 0 0 0 0 1 5 95 84 100 100
12 3 12 3 0 0 0 0 0 0 0 0 0 0 5 5 5 5 0 0 0 4 4 3 0 0 0 0 0 2 4 1 0 0 0 0 0 0 0 7 49 100 100 100
38 5 33 9 0 0 0 0 0 0 0 0 0 0 0 7 5 5 0 0 0 3 5 4 5 60 62 14 0 5 5 5 5 2 0 1 5 4 17 20 20 27 7 12
9 54 44 6 3 0 0 0 0 0 0 0 0 46 31 96 2 5 5 51 75 90 68 45 26 25 32 80 100 35 0 5 0 2 14 8 76 78 100 84 69 71 90 36
35 9 16 2 1 5 1 8 2 0 0 0 8 27 95 100 41 44 97 100 100 100 100 100 100 100 100 100 100 100 63 16 37 94 100 100 100 85 23 45 100 100 100 100